<?xml version="1.0" encoding="UTF-8" standalone="no" ?>
<gpx xmlns="http://www.topografix.com/GPX/1/1" xmlns:xsi="http://www.w3.org/2001/XMLSchema-instance" xsi:schemaLocation="http://www.topografix.com/GPX/1/1 http://www.topografix.com/GPX/1/1/gpx.xsd" version="1.1" creator="VisuGPX - https://www.visugpx.com">
  <metadata>
    <name>trace</name>
    <desc><![CDATA[Parcours FAT Bike de Villards de Lans à Corrençon-en-Vercors via la Via Vercors.]]></desc>
  </metadata>
  <trk>
    <name><![CDATA[trace_1]]></name>
    <extensions>
      <line xmlns="http://www.topografix.com/GPX/gpx_style/0/2">
        <color>0000FF</color>
        <width>4</width>
      </line>
    </extensions>
    <trkseg>
      <trkpt lat="45.07258" lon="5.55227">
        <ele>1016.2</ele>
        <time>2019-05-05T09:09:20Z</time>
      </trkpt>
      <trkpt lat="45.07244" lon="5.55256">
        <ele>1019.6</ele>
        <time>2019-05-05T09:09:20Z</time>
      </trkpt>
      <trkpt lat="45.0718" lon="5.55166">
        <ele>1019.5</ele>
        <time>2019-05-05T09:09:20Z</time>
      </trkpt>
      <trkpt lat="45.0714" lon="5.55147">
        <ele>1020.2</ele>
        <time>2019-05-05T09:09:20Z</time>
      </trkpt>
      <trkpt lat="45.07138" lon="5.55145">
        <ele>1020.3</ele>
        <time>2019-05-05T09:09:20Z</time>
      </trkpt>
      <trkpt lat="45.07098" lon="5.55122">
        <ele>1020.9</ele>
        <time>2019-05-05T09:09:20Z</time>
      </trkpt>
      <trkpt lat="45.0705" lon="5.5511">
        <ele>1022.2</ele>
        <time>2019-05-05T09:09:20Z</time>
      </trkpt>
      <trkpt lat="45.07032" lon="5.55091">
        <ele>1022.1</ele>
        <time>2019-05-05T09:09:20Z</time>
      </trkpt>
      <trkpt lat="45.0703" lon="5.55078">
        <ele>1021.7</ele>
        <time>2019-05-05T09:09:20Z</time>
      </trkpt>
      <trkpt lat="45.07026" lon="5.55067">
        <ele>1021.4</ele>
        <time>2019-05-05T09:09:20Z</time>
      </trkpt>
      <trkpt lat="45.06997" lon="5.55039">
        <ele>1020.9</ele>
        <time>2019-05-05T09:09:20Z</time>
      </trkpt>
      <trkpt lat="45.06993" lon="5.55026">
        <ele>1020.7</ele>
        <time>2019-05-05T09:09:20Z</time>
      </trkpt>
      <trkpt lat="45.06985" lon="5.55005">
        <ele>1020.1</ele>
        <time>2019-05-05T09:09:20Z</time>
      </trkpt>
      <trkpt lat="45.06978" lon="5.54995">
        <ele>1020</ele>
        <time>2019-05-05T09:09:20Z</time>
      </trkpt>
      <trkpt lat="45.06972" lon="5.54989">
        <ele>1020</ele>
        <time>2019-05-05T09:09:20Z</time>
      </trkpt>
      <trkpt lat="45.06953" lon="5.54979">
        <ele>1019.3</ele>
        <time>2019-05-05T09:09:20Z</time>
      </trkpt>
      <trkpt lat="45.06924" lon="5.54964">
        <ele>1015.3</ele>
        <time>2019-05-05T09:09:20Z</time>
      </trkpt>
      <trkpt lat="45.0692" lon="5.54939">
        <ele>1014.3</ele>
        <time>2019-05-05T09:09:20Z</time>
      </trkpt>
      <trkpt lat="45.06918" lon="5.54892">
        <ele>1012.3</ele>
        <time>2019-05-05T09:09:20Z</time>
      </trkpt>
      <trkpt lat="45.06913" lon="5.54894">
        <ele>1010.9</ele>
        <time>2019-05-05T09:09:20Z</time>
      </trkpt>
      <trkpt lat="45.06895" lon="5.54959">
        <ele>1006.5</ele>
        <time>2019-05-05T09:09:20Z</time>
      </trkpt>
      <trkpt lat="45.06892" lon="5.54975">
        <ele>1006.1</ele>
        <time>2019-05-05T09:09:20Z</time>
      </trkpt>
      <trkpt lat="45.06871" lon="5.55013">
        <ele>1000.4</ele>
        <time>2019-05-05T09:09:20Z</time>
      </trkpt>
      <trkpt lat="45.0684" lon="5.55089">
        <ele>993.8</ele>
        <time>2019-05-05T09:09:20Z</time>
      </trkpt>
      <trkpt lat="45.06825" lon="5.55136">
        <ele>994</ele>
        <time>2019-05-05T09:09:20Z</time>
      </trkpt>
      <trkpt lat="45.06813" lon="5.55157">
        <ele>993.5</ele>
        <time>2019-05-05T09:09:20Z</time>
      </trkpt>
      <trkpt lat="45.06804" lon="5.55186">
        <ele>994.4</ele>
        <time>2019-05-05T09:09:20Z</time>
      </trkpt>
      <trkpt lat="45.06798" lon="5.55231">
        <ele>996.3</ele>
        <time>2019-05-05T09:09:20Z</time>
      </trkpt>
      <trkpt lat="45.06794" lon="5.55237">
        <ele>996.5</ele>
        <time>2019-05-05T09:09:20Z</time>
      </trkpt>
      <trkpt lat="45.06748" lon="5.55233">
        <ele>997.4</ele>
        <time>2019-05-05T09:09:20Z</time>
      </trkpt>
      <trkpt lat="45.06697" lon="5.55228">
        <ele>998.4</ele>
        <time>2019-05-05T09:09:20Z</time>
      </trkpt>
      <trkpt lat="45.06677" lon="5.55221">
        <ele>999.2</ele>
        <time>2019-05-05T09:09:20Z</time>
      </trkpt>
      <trkpt lat="45.06648" lon="5.55132">
        <ele>999.4</ele>
        <time>2019-05-05T09:09:20Z</time>
      </trkpt>
      <trkpt lat="45.06633" lon="5.5507">
        <ele>1001.2</ele>
        <time>2019-05-05T09:09:20Z</time>
      </trkpt>
      <trkpt lat="45.06633" lon="5.55061">
        <ele>1001.3</ele>
        <time>2019-05-05T09:09:20Z</time>
      </trkpt>
      <trkpt lat="45.06639" lon="5.55056">
        <ele>999.9</ele>
        <time>2019-05-05T09:09:20Z</time>
      </trkpt>
      <trkpt lat="45.06632" lon="5.55036">
        <ele>1001.4</ele>
        <time>2019-05-05T09:09:20Z</time>
      </trkpt>
      <trkpt lat="45.06625" lon="5.54998">
        <ele>1002.4</ele>
        <time>2019-05-05T09:09:20Z</time>
      </trkpt>
      <trkpt lat="45.06624" lon="5.54974">
        <ele>1002.7</ele>
        <time>2019-05-05T09:09:20Z</time>
      </trkpt>
      <trkpt lat="45.06613" lon="5.54949">
        <ele>1005.5</ele>
        <time>2019-05-05T09:09:20Z</time>
      </trkpt>
      <trkpt lat="45.06604" lon="5.54941">
        <ele>1007.2</ele>
        <time>2019-05-05T09:09:20Z</time>
      </trkpt>
      <trkpt lat="45.06598" lon="5.54939">
        <ele>1008</ele>
        <time>2019-05-05T09:09:20Z</time>
      </trkpt>
      <trkpt lat="45.06586" lon="5.54939">
        <ele>1010</ele>
        <time>2019-05-05T09:09:20Z</time>
      </trkpt>
      <trkpt lat="45.06578" lon="5.54941">
        <ele>1011.2</ele>
        <time>2019-05-05T09:09:20Z</time>
      </trkpt>
      <trkpt lat="45.06546" lon="5.54958">
        <ele>1015.4</ele>
        <time>2019-05-05T09:09:20Z</time>
      </trkpt>
      <trkpt lat="45.0654" lon="5.54967">
        <ele>1016.8</ele>
        <time>2019-05-05T09:09:20Z</time>
      </trkpt>
      <trkpt lat="45.06536" lon="5.54982">
        <ele>1019.5</ele>
        <time>2019-05-05T09:09:20Z</time>
      </trkpt>
      <trkpt lat="45.06533" lon="5.55008">
        <ele>1023.9</ele>
        <time>2019-05-05T09:09:20Z</time>
      </trkpt>
      <trkpt lat="45.06526" lon="5.55021">
        <ele>1025.6</ele>
        <time>2019-05-05T09:09:20Z</time>
      </trkpt>
      <trkpt lat="45.06517" lon="5.55026">
        <ele>1026.7</ele>
        <time>2019-05-05T09:09:20Z</time>
      </trkpt>
      <trkpt lat="45.06509" lon="5.55038">
        <ele>1027.9</ele>
        <time>2019-05-05T09:09:20Z</time>
      </trkpt>
      <trkpt lat="45.06486" lon="5.551">
        <ele>1034.4</ele>
        <time>2019-05-05T09:09:20Z</time>
      </trkpt>
      <trkpt lat="45.06467" lon="5.55128">
        <ele>1036.8</ele>
        <time>2019-05-05T09:09:20Z</time>
      </trkpt>
      <trkpt lat="45.06455" lon="5.55154">
        <ele>1038.2</ele>
        <time>2019-05-05T09:09:20Z</time>
      </trkpt>
      <trkpt lat="45.06431" lon="5.55174">
        <ele>1039.7</ele>
        <time>2019-05-05T09:09:20Z</time>
      </trkpt>
      <trkpt lat="45.06407" lon="5.55208">
        <ele>1042.4</ele>
        <time>2019-05-05T09:09:20Z</time>
      </trkpt>
      <trkpt lat="45.0639" lon="5.55239">
        <ele>1044.6</ele>
        <time>2019-05-05T09:09:20Z</time>
      </trkpt>
      <trkpt lat="45.06372" lon="5.55262">
        <ele>1046</ele>
        <time>2019-05-05T09:09:20Z</time>
      </trkpt>
      <trkpt lat="45.06356" lon="5.55271">
        <ele>1046.7</ele>
        <time>2019-05-05T09:09:20Z</time>
      </trkpt>
      <trkpt lat="45.06331" lon="5.55278">
        <ele>1047</ele>
        <time>2019-05-05T09:09:20Z</time>
      </trkpt>
      <trkpt lat="45.06274" lon="5.55317">
        <ele>1047.2</ele>
        <time>2019-05-05T09:09:20Z</time>
      </trkpt>
      <trkpt lat="45.06254" lon="5.55332">
        <ele>1047.1</ele>
        <time>2019-05-05T09:09:20Z</time>
      </trkpt>
      <trkpt lat="45.06244" lon="5.55347">
        <ele>1047.6</ele>
        <time>2019-05-05T09:09:20Z</time>
      </trkpt>
      <trkpt lat="45.0624" lon="5.55359">
        <ele>1048.3</ele>
        <time>2019-05-05T09:09:20Z</time>
      </trkpt>
      <trkpt lat="45.0624" lon="5.55399">
        <ele>1051.2</ele>
        <time>2019-05-05T09:09:20Z</time>
      </trkpt>
      <trkpt lat="45.06238" lon="5.55418">
        <ele>1052.7</ele>
        <time>2019-05-05T09:09:20Z</time>
      </trkpt>
      <trkpt lat="45.06234" lon="5.55429">
        <ele>1053.3</ele>
        <time>2019-05-05T09:09:20Z</time>
      </trkpt>
      <trkpt lat="45.06209" lon="5.55455">
        <ele>1055.7</ele>
        <time>2019-05-05T09:09:20Z</time>
      </trkpt>
      <trkpt lat="45.0618" lon="5.55497">
        <ele>1058.8</ele>
        <time>2019-05-05T09:09:20Z</time>
      </trkpt>
      <trkpt lat="45.06169" lon="5.55531">
        <ele>1060.2</ele>
        <time>2019-05-05T09:09:20Z</time>
      </trkpt>
      <trkpt lat="45.0616" lon="5.5555">
        <ele>1059.9</ele>
        <time>2019-05-05T09:09:20Z</time>
      </trkpt>
      <trkpt lat="45.06077" lon="5.55648">
        <ele>1052</ele>
        <time>2019-05-05T09:09:20Z</time>
      </trkpt>
      <trkpt lat="45.06066" lon="5.55651">
        <ele>1052</ele>
        <time>2019-05-05T09:09:20Z</time>
      </trkpt>
      <trkpt lat="45.05996" lon="5.55603">
        <ele>1057.4</ele>
        <time>2019-05-05T09:09:20Z</time>
      </trkpt>
      <trkpt lat="45.05985" lon="5.55591">
        <ele>1059.5</ele>
        <time>2019-05-05T09:09:20Z</time>
      </trkpt>
      <trkpt lat="45.05977" lon="5.55593">
        <ele>1061.8</ele>
        <time>2019-05-05T09:09:20Z</time>
      </trkpt>
      <trkpt lat="45.05965" lon="5.55585">
        <ele>1064.1</ele>
        <time>2019-05-05T09:09:20Z</time>
      </trkpt>
      <trkpt lat="45.05919" lon="5.55493">
        <ele>1060.8</ele>
        <time>2019-05-05T09:09:20Z</time>
      </trkpt>
      <trkpt lat="45.0591" lon="5.5549">
        <ele>1061.5</ele>
        <time>2019-05-05T09:09:20Z</time>
      </trkpt>
      <trkpt lat="45.05918" lon="5.55511">
        <ele>1063.6</ele>
        <time>2019-05-05T09:09:20Z</time>
      </trkpt>
      <trkpt lat="45.05917" lon="5.55527">
        <ele>1066.8</ele>
        <time>2019-05-05T09:09:20Z</time>
      </trkpt>
      <trkpt lat="45.05916" lon="5.55535">
        <ele>1068.8</ele>
        <time>2019-05-05T09:09:20Z</time>
      </trkpt>
      <trkpt lat="45.05912" lon="5.55539">
        <ele>1069.8</ele>
        <time>2019-05-05T09:09:20Z</time>
      </trkpt>
      <trkpt lat="45.05903" lon="5.55544">
        <ele>1072</ele>
        <time>2019-05-05T09:09:20Z</time>
      </trkpt>
      <trkpt lat="45.0589" lon="5.55546">
        <ele>1073.8</ele>
        <time>2019-05-05T09:09:20Z</time>
      </trkpt>
      <trkpt lat="45.05777" lon="5.55624">
        <ele>1079.7</ele>
        <time>2019-05-05T09:09:20Z</time>
      </trkpt>
      <trkpt lat="45.05746" lon="5.55623">
        <ele>1078</ele>
        <time>2019-05-05T09:09:20Z</time>
      </trkpt>
      <trkpt lat="45.05712" lon="5.55638">
        <ele>1081.1</ele>
        <time>2019-05-05T09:09:20Z</time>
      </trkpt>
      <trkpt lat="45.05692" lon="5.55642">
        <ele>1082.9</ele>
        <time>2019-05-05T09:09:20Z</time>
      </trkpt>
      <trkpt lat="45.05652" lon="5.55641">
        <ele>1087.9</ele>
        <time>2019-05-05T09:09:20Z</time>
      </trkpt>
      <trkpt lat="45.05647" lon="5.55646">
        <ele>1089.5</ele>
        <time>2019-05-05T09:09:20Z</time>
      </trkpt>
      <trkpt lat="45.05645" lon="5.55655">
        <ele>1091.2</ele>
        <time>2019-05-05T09:09:20Z</time>
      </trkpt>
      <trkpt lat="45.05649" lon="5.5567">
        <ele>1092.7</ele>
        <time>2019-05-05T09:09:20Z</time>
      </trkpt>
      <trkpt lat="45.05654" lon="5.55676">
        <ele>1092.6</ele>
        <time>2019-05-05T09:09:20Z</time>
      </trkpt>
      <trkpt lat="45.05744" lon="5.55683">
        <ele>1089.8</ele>
        <time>2019-05-05T09:09:20Z</time>
      </trkpt>
      <trkpt lat="45.05759" lon="5.55699">
        <ele>1092.7</ele>
        <time>2019-05-05T09:09:20Z</time>
      </trkpt>
      <trkpt lat="45.0575" lon="5.55718">
        <ele>1095.4</ele>
        <time>2019-05-05T09:09:20Z</time>
      </trkpt>
      <trkpt lat="45.05707" lon="5.5572">
        <ele>1095.6</ele>
        <time>2019-05-05T09:09:20Z</time>
      </trkpt>
      <trkpt lat="45.05658" lon="5.55743">
        <ele>1102.3</ele>
        <time>2019-05-05T09:09:20Z</time>
      </trkpt>
      <trkpt lat="45.05632" lon="5.55745">
        <ele>1106.7</ele>
        <time>2019-05-05T09:09:20Z</time>
      </trkpt>
      <trkpt lat="45.05598" lon="5.55665">
        <ele>1104.9</ele>
        <time>2019-05-05T09:09:20Z</time>
      </trkpt>
      <trkpt lat="45.05572" lon="5.55624">
        <ele>1108</ele>
        <time>2019-05-05T09:09:20Z</time>
      </trkpt>
      <trkpt lat="45.05448" lon="5.55455">
        <ele>1120.5</ele>
        <time>2019-05-05T09:09:20Z</time>
      </trkpt>
      <trkpt lat="45.05439" lon="5.55405">
        <ele>1117.6</ele>
        <time>2019-05-05T09:09:20Z</time>
      </trkpt>
      <trkpt lat="45.05407" lon="5.5537">
        <ele>1123.3</ele>
        <time>2019-05-05T09:09:20Z</time>
      </trkpt>
      <trkpt lat="45.05334" lon="5.55317">
        <ele>1129.4</ele>
        <time>2019-05-05T09:09:20Z</time>
      </trkpt>
      <trkpt lat="45.0525" lon="5.55291">
        <ele>1120.4</ele>
        <time>2019-05-05T09:09:20Z</time>
      </trkpt>
      <trkpt lat="45.0521" lon="5.55295">
        <ele>1116</ele>
        <time>2019-05-05T09:09:20Z</time>
      </trkpt>
      <trkpt lat="45.05188" lon="5.55291">
        <ele>1115.5</ele>
        <time>2019-05-05T09:09:20Z</time>
      </trkpt>
      <trkpt lat="45.05167" lon="5.55261">
        <ele>1114.2</ele>
        <time>2019-05-05T09:09:20Z</time>
      </trkpt>
      <trkpt lat="45.05124" lon="5.55238">
        <ele>1115.6</ele>
        <time>2019-05-05T09:09:20Z</time>
      </trkpt>
      <trkpt lat="45.05078" lon="5.55209">
        <ele>1119.6</ele>
        <time>2019-05-05T09:09:20Z</time>
      </trkpt>
      <trkpt lat="45.05062" lon="5.55185">
        <ele>1120.4</ele>
        <time>2019-05-05T09:09:20Z</time>
      </trkpt>
      <trkpt lat="45.05025" lon="5.55185">
        <ele>1124.8</ele>
        <time>2019-05-05T09:09:20Z</time>
      </trkpt>
      <trkpt lat="45.04999" lon="5.55196">
        <ele>1128.2</ele>
        <time>2019-05-05T09:09:20Z</time>
      </trkpt>
      <trkpt lat="45.04935" lon="5.55205">
        <ele>1130.8</ele>
        <time>2019-05-05T09:09:20Z</time>
      </trkpt>
      <trkpt lat="45.0491" lon="5.55204">
        <ele>1131.5</ele>
        <time>2019-05-05T09:09:20Z</time>
      </trkpt>
      <trkpt lat="45.04867" lon="5.55203">
        <ele>1129.5</ele>
        <time>2019-05-05T09:09:20Z</time>
      </trkpt>
      <trkpt lat="45.04849" lon="5.55207">
        <ele>1127</ele>
        <time>2019-05-05T09:09:20Z</time>
      </trkpt>
      <trkpt lat="45.04835" lon="5.55217">
        <ele>1124.9</ele>
        <time>2019-05-05T09:09:20Z</time>
      </trkpt>
      <trkpt lat="45.0483" lon="5.55227">
        <ele>1124.2</ele>
        <time>2019-05-05T09:09:20Z</time>
      </trkpt>
      <trkpt lat="45.04819" lon="5.55282">
        <ele>1123.2</ele>
        <time>2019-05-05T09:09:20Z</time>
      </trkpt>
      <trkpt lat="45.04816" lon="5.55343">
        <ele>1122.4</ele>
        <time>2019-05-05T09:09:20Z</time>
      </trkpt>
      <trkpt lat="45.04815" lon="5.55421">
        <ele>1121.9</ele>
        <time>2019-05-05T09:09:20Z</time>
      </trkpt>
      <trkpt lat="45.0482" lon="5.55453">
        <ele>1123.6</ele>
        <time>2019-05-05T09:09:20Z</time>
      </trkpt>
      <trkpt lat="45.04821" lon="5.55484">
        <ele>1124.3</ele>
        <time>2019-05-05T09:09:20Z</time>
      </trkpt>
      <trkpt lat="45.04828" lon="5.55513">
        <ele>1125.7</ele>
        <time>2019-05-05T09:09:20Z</time>
      </trkpt>
      <trkpt lat="45.04823" lon="5.55521">
        <ele>1125</ele>
        <time>2019-05-05T09:09:20Z</time>
      </trkpt>
      <trkpt lat="45.04807" lon="5.55539">
        <ele>1123.5</ele>
        <time>2019-05-05T09:09:20Z</time>
      </trkpt>
      <trkpt lat="45.04787" lon="5.55552">
        <ele>1124.4</ele>
        <time>2019-05-05T09:09:20Z</time>
      </trkpt>
      <trkpt lat="45.04769" lon="5.55551">
        <ele>1124.5</ele>
        <time>2019-05-05T09:09:20Z</time>
      </trkpt>
      <trkpt lat="45.04755" lon="5.5554">
        <ele>1123.4</ele>
        <time>2019-05-05T09:09:20Z</time>
      </trkpt>
      <trkpt lat="45.04732" lon="5.55509">
        <ele>1121</ele>
        <time>2019-05-05T09:09:20Z</time>
      </trkpt>
      <trkpt lat="45.04709" lon="5.55464">
        <ele>1119.5</ele>
        <time>2019-05-05T09:09:20Z</time>
      </trkpt>
      <trkpt lat="45.04702" lon="5.55452">
        <ele>1119.5</ele>
        <time>2019-05-05T09:09:20Z</time>
      </trkpt>
      <trkpt lat="45.0469" lon="5.55448">
        <ele>1120.7</ele>
        <time>2019-05-05T09:09:20Z</time>
      </trkpt>
      <trkpt lat="45.04678" lon="5.55447">
        <ele>1121.4</ele>
        <time>2019-05-05T09:09:20Z</time>
      </trkpt>
      <trkpt lat="45.04673" lon="5.55454">
        <ele>1122</ele>
        <time>2019-05-05T09:09:20Z</time>
      </trkpt>
      <trkpt lat="45.04672" lon="5.55472">
        <ele>1123</ele>
        <time>2019-05-05T09:09:20Z</time>
      </trkpt>
      <trkpt lat="45.04668" lon="5.55487">
        <ele>1124</ele>
        <time>2019-05-05T09:09:20Z</time>
      </trkpt>
      <trkpt lat="45.04664" lon="5.55501">
        <ele>1124.6</ele>
        <time>2019-05-05T09:09:20Z</time>
      </trkpt>
      <trkpt lat="45.04655" lon="5.55516">
        <ele>1124.6</ele>
        <time>2019-05-05T09:09:20Z</time>
      </trkpt>
      <trkpt lat="45.0464" lon="5.55529">
        <ele>1125.3</ele>
        <time>2019-05-05T09:09:20Z</time>
      </trkpt>
      <trkpt lat="45.04613" lon="5.55536">
        <ele>1125.1</ele>
        <time>2019-05-05T09:09:20Z</time>
      </trkpt>
      <trkpt lat="45.04593" lon="5.55538">
        <ele>1122</ele>
        <time>2019-05-05T09:09:20Z</time>
      </trkpt>
      <trkpt lat="45.04574" lon="5.55557">
        <ele>1120.8</ele>
        <time>2019-05-05T09:09:20Z</time>
      </trkpt>
      <trkpt lat="45.04559" lon="5.5559">
        <ele>1120.1</ele>
        <time>2019-05-05T09:09:20Z</time>
      </trkpt>
      <trkpt lat="45.04557" lon="5.55611">
        <ele>1121.6</ele>
        <time>2019-05-05T09:09:20Z</time>
      </trkpt>
      <trkpt lat="45.04539" lon="5.55706">
        <ele>1119.2</ele>
        <time>2019-05-05T09:09:20Z</time>
      </trkpt>
      <trkpt lat="45.04516" lon="5.55754">
        <ele>1116.1</ele>
        <time>2019-05-05T09:09:20Z</time>
      </trkpt>
      <trkpt lat="45.045" lon="5.55789">
        <ele>1116.5</ele>
        <time>2019-05-05T09:09:20Z</time>
      </trkpt>
      <trkpt lat="45.04486" lon="5.55831">
        <ele>1123.5</ele>
        <time>2019-05-05T09:09:20Z</time>
      </trkpt>
      <trkpt lat="45.04475" lon="5.55845">
        <ele>1125.8</ele>
        <time>2019-05-05T09:09:20Z</time>
      </trkpt>
      <trkpt lat="45.04461" lon="5.55847">
        <ele>1128.3</ele>
        <time>2019-05-05T09:09:20Z</time>
      </trkpt>
      <trkpt lat="45.04456" lon="5.55831">
        <ele>1126</ele>
        <time>2019-05-05T09:09:20Z</time>
      </trkpt>
      <trkpt lat="45.04442" lon="5.55814">
        <ele>1125.2</ele>
        <time>2019-05-05T09:09:20Z</time>
      </trkpt>
      <trkpt lat="45.04429" lon="5.55801">
        <ele>1127</ele>
        <time>2019-05-05T09:09:20Z</time>
      </trkpt>
      <trkpt lat="45.04422" lon="5.55796">
        <ele>1128.8</ele>
        <time>2019-05-05T09:09:20Z</time>
      </trkpt>
      <trkpt lat="45.04403" lon="5.55746">
        <ele>1130.3</ele>
        <time>2019-05-05T09:09:20Z</time>
      </trkpt>
      <trkpt lat="45.04395" lon="5.55706">
        <ele>1131.5</ele>
        <time>2019-05-05T09:09:20Z</time>
      </trkpt>
      <trkpt lat="45.04385" lon="5.5568">
        <ele>1134.9</ele>
        <time>2019-05-05T09:09:20Z</time>
      </trkpt>
      <trkpt lat="45.0435" lon="5.55619">
        <ele>1146.6</ele>
        <time>2019-05-05T09:09:20Z</time>
      </trkpt>
      <trkpt lat="45.04284" lon="5.55479">
        <ele>1155.1</ele>
        <time>2019-05-05T09:09:20Z</time>
      </trkpt>
      <trkpt lat="45.04279" lon="5.55453">
        <ele>1155.2</ele>
        <time>2019-05-05T09:09:20Z</time>
      </trkpt>
      <trkpt lat="45.04246" lon="5.55391">
        <ele>1160</ele>
        <time>2019-05-05T09:09:20Z</time>
      </trkpt>
      <trkpt lat="45.04205" lon="5.55316">
        <ele>1158.6</ele>
        <time>2019-05-05T09:09:20Z</time>
      </trkpt>
      <trkpt lat="45.04184" lon="5.55262">
        <ele>1152.6</ele>
        <time>2019-05-05T09:09:20Z</time>
      </trkpt>
      <trkpt lat="45.04169" lon="5.55227">
        <ele>1147.5</ele>
        <time>2019-05-05T09:09:20Z</time>
      </trkpt>
      <trkpt lat="45.04143" lon="5.55211">
        <ele>1148.3</ele>
        <time>2019-05-05T09:09:20Z</time>
      </trkpt>
      <trkpt lat="45.04134" lon="5.55194">
        <ele>1147.7</ele>
        <time>2019-05-05T09:09:20Z</time>
      </trkpt>
      <trkpt lat="45.04134" lon="5.55169">
        <ele>1145</ele>
        <time>2019-05-05T09:09:20Z</time>
      </trkpt>
      <trkpt lat="45.0415" lon="5.55137">
        <ele>1140.2</ele>
        <time>2019-05-05T09:09:20Z</time>
      </trkpt>
      <trkpt lat="45.04146" lon="5.5512">
        <ele>1140</ele>
        <time>2019-05-05T09:09:20Z</time>
      </trkpt>
      <trkpt lat="45.04133" lon="5.55103">
        <ele>1142.6</ele>
        <time>2019-05-05T09:09:20Z</time>
      </trkpt>
      <trkpt lat="45.04128" lon="5.5509">
        <ele>1144.7</ele>
        <time>2019-05-05T09:09:20Z</time>
      </trkpt>
      <trkpt lat="45.04131" lon="5.55064">
        <ele>1145.6</ele>
        <time>2019-05-05T09:09:20Z</time>
      </trkpt>
      <trkpt lat="45.0414" lon="5.55042">
        <ele>1143.9</ele>
        <time>2019-05-05T09:09:20Z</time>
      </trkpt>
      <trkpt lat="45.04246" lon="5.54911">
        <ele>1125.8</ele>
        <time>2019-05-05T09:09:20Z</time>
      </trkpt>
      <trkpt lat="45.04249" lon="5.54891">
        <ele>1126</ele>
        <time>2019-05-05T09:09:20Z</time>
      </trkpt>
      <trkpt lat="45.04266" lon="5.54862">
        <ele>1125.2</ele>
        <time>2019-05-05T09:09:20Z</time>
      </trkpt>
      <trkpt lat="45.04275" lon="5.54847">
        <ele>1124.8</ele>
        <time>2019-05-05T09:09:20Z</time>
      </trkpt>
      <trkpt lat="45.043" lon="5.54833">
        <ele>1123.4</ele>
        <time>2019-05-05T09:09:20Z</time>
      </trkpt>
      <trkpt lat="45.04361" lon="5.54821">
        <ele>1116.5</ele>
        <time>2019-05-05T09:09:20Z</time>
      </trkpt>
      <trkpt lat="45.04375" lon="5.54816">
        <ele>1113.3</ele>
        <time>2019-05-05T09:09:20Z</time>
      </trkpt>
      <trkpt lat="45.04381" lon="5.54802">
        <ele>1111.6</ele>
        <time>2019-05-05T09:09:20Z</time>
      </trkpt>
      <trkpt lat="45.04383" lon="5.54768">
        <ele>1108.2</ele>
        <time>2019-05-05T09:09:20Z</time>
      </trkpt>
      <trkpt lat="45.04378" lon="5.54743">
        <ele>1105.7</ele>
        <time>2019-05-05T09:09:20Z</time>
      </trkpt>
      <trkpt lat="45.04361" lon="5.54699">
        <ele>1102.7</ele>
        <time>2019-05-05T09:09:20Z</time>
      </trkpt>
      <trkpt lat="45.04348" lon="5.54678">
        <ele>1099</ele>
        <time>2019-05-05T09:09:20Z</time>
      </trkpt>
      <trkpt lat="45.04305" lon="5.54679">
        <ele>1099.1</ele>
        <time>2019-05-05T09:09:20Z</time>
      </trkpt>
      <trkpt lat="45.04293" lon="5.54668">
        <ele>1096.4</ele>
        <time>2019-05-05T09:09:20Z</time>
      </trkpt>
      <trkpt lat="45.04278" lon="5.54646">
        <ele>1093</ele>
        <time>2019-05-05T09:09:20Z</time>
      </trkpt>
      <trkpt lat="45.04276" lon="5.54621">
        <ele>1091.3</ele>
        <time>2019-05-05T09:09:20Z</time>
      </trkpt>
      <trkpt lat="45.04283" lon="5.54581">
        <ele>1088.6</ele>
        <time>2019-05-05T09:09:20Z</time>
      </trkpt>
      <trkpt lat="45.04278" lon="5.54533">
        <ele>1093.4</ele>
        <time>2019-05-05T09:09:20Z</time>
      </trkpt>
      <trkpt lat="45.04269" lon="5.54491">
        <ele>1098</ele>
        <time>2019-05-05T09:09:20Z</time>
      </trkpt>
      <trkpt lat="45.04258" lon="5.54464">
        <ele>1101.3</ele>
        <time>2019-05-05T09:09:20Z</time>
      </trkpt>
      <trkpt lat="45.04245" lon="5.54428">
        <ele>1102.6</ele>
        <time>2019-05-05T09:09:20Z</time>
      </trkpt>
      <trkpt lat="45.04211" lon="5.54297">
        <ele>1092</ele>
        <time>2019-05-05T09:09:20Z</time>
      </trkpt>
      <trkpt lat="45.04204" lon="5.5427">
        <ele>1089.7</ele>
        <time>2019-05-05T09:09:20Z</time>
      </trkpt>
      <trkpt lat="45.04203" lon="5.54243">
        <ele>1087</ele>
        <time>2019-05-05T09:09:20Z</time>
      </trkpt>
      <trkpt lat="45.04198" lon="5.54235">
        <ele>1086.8</ele>
        <time>2019-05-05T09:09:20Z</time>
      </trkpt>
      <trkpt lat="45.04196" lon="5.54203">
        <ele>1084.4</ele>
        <time>2019-05-05T09:09:20Z</time>
      </trkpt>
      <trkpt lat="45.04192" lon="5.54197">
        <ele>1084.7</ele>
        <time>2019-05-05T09:09:20Z</time>
      </trkpt>
      <trkpt lat="45.04186" lon="5.54186">
        <ele>1084.6</ele>
        <time>2019-05-05T09:09:20Z</time>
      </trkpt>
      <trkpt lat="45.04173" lon="5.54176">
        <ele>1085.9</ele>
        <time>2019-05-05T09:09:20Z</time>
      </trkpt>
      <trkpt lat="45.04163" lon="5.5417">
        <ele>1087.2</ele>
        <time>2019-05-05T09:09:20Z</time>
      </trkpt>
      <trkpt lat="45.04154" lon="5.54161">
        <ele>1088.5</ele>
        <time>2019-05-05T09:09:20Z</time>
      </trkpt>
      <trkpt lat="45.04146" lon="5.54135">
        <ele>1090.1</ele>
        <time>2019-05-05T09:09:20Z</time>
      </trkpt>
      <trkpt lat="45.04143" lon="5.54099">
        <ele>1091.4</ele>
        <time>2019-05-05T09:09:20Z</time>
      </trkpt>
      <trkpt lat="45.04144" lon="5.54033">
        <ele>1091.2</ele>
        <time>2019-05-05T09:09:20Z</time>
      </trkpt>
      <trkpt lat="45.04132" lon="5.53979">
        <ele>1089.8</ele>
        <time>2019-05-05T09:09:20Z</time>
      </trkpt>
      <trkpt lat="45.0412" lon="5.53948">
        <ele>1090.8</ele>
        <time>2019-05-05T09:09:20Z</time>
      </trkpt>
      <trkpt lat="45.04121" lon="5.53911">
        <ele>1087.7</ele>
        <time>2019-05-05T09:09:20Z</time>
      </trkpt>
      <trkpt lat="45.0409" lon="5.53863">
        <ele>1085.4</ele>
        <time>2019-05-05T09:09:20Z</time>
      </trkpt>
      <trkpt lat="45.04052" lon="5.53851">
        <ele>1091.1</ele>
        <time>2019-05-05T09:09:20Z</time>
      </trkpt>
      <trkpt lat="45.04008" lon="5.53822">
        <ele>1095.7</ele>
        <time>2019-05-05T09:09:20Z</time>
      </trkpt>
      <trkpt lat="45.03952" lon="5.53757">
        <ele>1095</ele>
        <time>2019-05-05T09:09:20Z</time>
      </trkpt>
      <trkpt lat="45.03867" lon="5.53661">
        <ele>1087.8</ele>
        <time>2019-05-05T09:09:20Z</time>
      </trkpt>
      <trkpt lat="45.03778" lon="5.53566">
        <ele>1084.5</ele>
        <time>2019-05-05T09:09:20Z</time>
      </trkpt>
      <trkpt lat="45.03746" lon="5.53542">
        <ele>1085.9</ele>
        <time>2019-05-05T09:09:20Z</time>
      </trkpt>
      <trkpt lat="45.03703" lon="5.53503">
        <ele>1087.1</ele>
        <time>2019-05-05T09:09:20Z</time>
      </trkpt>
      <trkpt lat="45.03675" lon="5.53458">
        <ele>1088.6</ele>
        <time>2019-05-05T09:09:20Z</time>
      </trkpt>
      <trkpt lat="45.03661" lon="5.53433">
        <ele>1088.4</ele>
        <time>2019-05-05T09:09:20Z</time>
      </trkpt>
      <trkpt lat="45.03656" lon="5.53417">
        <ele>1087.8</ele>
        <time>2019-05-05T09:09:20Z</time>
      </trkpt>
      <trkpt lat="45.03659" lon="5.53411">
        <ele>1087.2</ele>
        <time>2019-05-05T09:09:20Z</time>
      </trkpt>
      <trkpt lat="45.03644" lon="5.53399">
        <ele>1087.3</ele>
        <time>2019-05-05T09:09:20Z</time>
      </trkpt>
      <trkpt lat="45.03608" lon="5.53382">
        <ele>1087.3</ele>
        <time>2019-05-05T09:09:20Z</time>
      </trkpt>
      <trkpt lat="45.03551" lon="5.53369">
        <ele>1087.7</ele>
        <time>2019-05-05T09:09:20Z</time>
      </trkpt>
      <trkpt lat="45.03483" lon="5.53349">
        <ele>1089.3</ele>
        <time>2019-05-05T09:09:20Z</time>
      </trkpt>
      <trkpt lat="45.03459" lon="5.53332">
        <ele>1089.9</ele>
        <time>2019-05-05T09:09:20Z</time>
      </trkpt>
      <trkpt lat="45.03405" lon="5.53293">
        <ele>1090.7</ele>
        <time>2019-05-05T09:09:20Z</time>
      </trkpt>
      <trkpt lat="45.03391" lon="5.53274">
        <ele>1090.7</ele>
        <time>2019-05-05T09:09:20Z</time>
      </trkpt>
      <trkpt lat="45.03367" lon="5.53231">
        <ele>1091.6</ele>
        <time>2019-05-05T09:09:20Z</time>
      </trkpt>
      <trkpt lat="45.03356" lon="5.53206">
        <ele>1091.8</ele>
        <time>2019-05-05T09:09:20Z</time>
      </trkpt>
      <trkpt lat="45.03336" lon="5.53135">
        <ele>1091.9</ele>
        <time>2019-05-05T09:09:20Z</time>
      </trkpt>
      <trkpt lat="45.03327" lon="5.53062">
        <ele>1091.4</ele>
        <time>2019-05-05T09:09:20Z</time>
      </trkpt>
      <trkpt lat="45.03328" lon="5.52942">
        <ele>1095.3</ele>
        <time>2019-05-05T09:09:20Z</time>
      </trkpt>
      <trkpt lat="45.03312" lon="5.52808">
        <ele>1098.3</ele>
        <time>2019-05-05T09:09:20Z</time>
      </trkpt>
      <trkpt lat="45.03304" lon="5.52779">
        <ele>1099.2</ele>
        <time>2019-05-05T09:09:20Z</time>
      </trkpt>
      <trkpt lat="45.03298" lon="5.52767">
        <ele>1099.5</ele>
        <time>2019-05-05T09:09:20Z</time>
      </trkpt>
      <trkpt lat="45.03287" lon="5.52753">
        <ele>1099.6</ele>
        <time>2019-05-05T09:09:20Z</time>
      </trkpt>
      <trkpt lat="45.03272" lon="5.52743">
        <ele>1100.2</ele>
        <time>2019-05-05T09:09:20Z</time>
      </trkpt>
      <trkpt lat="45.03258" lon="5.52741">
        <ele>1101.8</ele>
        <time>2019-05-05T09:09:20Z</time>
      </trkpt>
      <trkpt lat="45.03225" lon="5.5274">
        <ele>1103.8</ele>
        <time>2019-05-05T09:09:20Z</time>
      </trkpt>
      <trkpt lat="45.03189" lon="5.52727">
        <ele>1103.3</ele>
        <time>2019-05-05T09:09:20Z</time>
      </trkpt>
      <trkpt lat="45.03164" lon="5.52704">
        <ele>1102.4</ele>
        <time>2019-05-05T09:09:20Z</time>
      </trkpt>
      <trkpt lat="45.03151" lon="5.52686">
        <ele>1102.6</ele>
        <time>2019-05-05T09:09:20Z</time>
      </trkpt>
      <trkpt lat="45.03121" lon="5.52662">
        <ele>1103.7</ele>
        <time>2019-05-05T09:09:20Z</time>
      </trkpt>
    </trkseg>
  </trk>
</gpx>